| Back to River Map | <<< Previous Forecast Point | | | Next Forecast Point >>> | Printer Version | Graph Version |  |
|
SPANISH CREEK - KEDDIE (SCBC1)
| Latitude: 40.00º N | Longitude: 120.95º W | Elevation: 3130 Feet | | Forecast Type: Unofficial Location |
| Location: Plumas County in California | Bulletin Group: Lower Sacramento | River Group: Feather Yuba |
| Issuance Time: | Sep 02 2026 at 7:20 AM PDT | Next Issuance: | Sep 03 2026 at 9:00 AM PDT
| |
| Action: N/A | Minor Flood: N/A | Moderate Flood: N/A | Major Flood: N/A |
# Tabular Observed and Forecast Hydrograph Information
#
# Location: Spanish Creek - Keddie (SCBC1)
#
# File Generation Time: 09/02/2026 at 07:21 AM PDT
# Data Interval: 1 Hour
#
# Most Recent Date & Time of Maximum Observed: 08/29/2026 at 09:00 PM PDT
# Maximum Observed Stage: 0.80 Feet
# Maximum Observed Flow: 22 cfs
#
# Earliest Date & Time of Maximum Forecast: 09/03/2026 at 11:00 PM PDT
# Maximum Forecast Stage: 1.00 Feet
# Maximum Forecast Flow: 31 cfs
#
# OBSERVED
#
# Date & Time (Local) Stage (Feet) Flow (cfs) Trend Observed Status
# ---------------------------------------------------------------------------------
08/28/2026 07 AM PDT 0.70 18 Not Applicable
08/28/2026 08 AM PDT 0.70 18 0 Not Applicable
08/28/2026 09 AM PDT 0.70 18 0 Not Applicable
08/28/2026 10 AM PDT 0.70 18 0 Not Applicable
08/28/2026 11 AM PDT 0.69 17 - Not Applicable
08/28/2026 12 PM PDT 0.69 17 0 Not Applicable
08/28/2026 01 PM PDT 0.69 17 0 Not Applicable
08/28/2026 02 PM PDT 0.69 17 0 Not Applicable
08/28/2026 03 PM PDT 0.69 17 0 Not Applicable
08/28/2026 04 PM PDT 0.70 18 + Not Applicable
08/28/2026 05 PM PDT 0.70 18 0 Not Applicable
08/28/2026 06 PM PDT 0.71 18 + Not Applicable
08/28/2026 07 PM PDT 0.71 18 0 Not Applicable
08/28/2026 08 PM PDT 0.71 18 0 Not Applicable
08/28/2026 09 PM PDT 0.71 18 0 Not Applicable
08/28/2026 10 PM PDT 0.71 18 0 Not Applicable
08/28/2026 11 PM PDT 0.71 18 0 Not Applicable
08/29/2026 12 AM PDT 0.72 19 + Not Applicable
08/29/2026 01 AM PDT 0.72 19 0 Not Applicable
08/29/2026 02 AM PDT 0.72 19 0 Not Applicable
08/29/2026 03 AM PDT 0.72 19 0 Not Applicable
08/29/2026 04 AM PDT 0.72 19 0 Not Applicable
08/29/2026 05 AM PDT 0.72 19 0 Not Applicable
08/29/2026 06 AM PDT 0.72 19 0 Not Applicable
08/29/2026 07 AM PDT 0.72 19 0 Not Applicable
08/29/2026 08 AM PDT 0.72 19 0 Not Applicable
08/29/2026 09 AM PDT 0.72 19 0 Not Applicable
08/29/2026 10 AM PDT 0.72 19 0 Not Applicable
08/29/2026 11 AM PDT 0.73 19 + Not Applicable
08/29/2026 12 PM PDT 0.74 19 + Not Applicable
08/29/2026 01 PM PDT 0.75 20 + Not Applicable
08/29/2026 02 PM PDT 0.76 20 + Not Applicable
08/29/2026 03 PM PDT 0.78 21 + Not Applicable
08/29/2026 04 PM PDT 0.79 21 + Not Applicable
08/29/2026 05 PM PDT 0.79 21 0 Not Applicable
08/29/2026 06 PM PDT 0.80 22 + Not Applicable
08/29/2026 07 PM PDT 0.80 22 0 Not Applicable
08/29/2026 08 PM PDT 0.80 22 0 Not Applicable
08/29/2026 09 PM PDT 0.80 22 0 Not Applicable
08/29/2026 10 PM PDT 0.79 21 - Not Applicable
08/29/2026 11 PM PDT 0.79 21 0 Not Applicable
08/30/2026 12 AM PDT 0.79 21 0 Not Applicable
08/30/2026 01 AM PDT 0.79 21 0 Not Applicable
08/30/2026 02 AM PDT 0.79 21 0 Not Applicable
08/30/2026 03 AM PDT 0.79 21 0 Not Applicable
08/30/2026 04 AM PDT 0.78 21 - Not Applicable
08/30/2026 05 AM PDT 0.78 21 0 Not Applicable
08/30/2026 06 AM PDT 0.78 21 0 Not Applicable
08/30/2026 07 AM PDT 0.78 21 0 Not Applicable
08/30/2026 08 AM PDT 0.78 21 0 Not Applicable
08/30/2026 09 AM PDT 0.78 21 0 Not Applicable
08/30/2026 10 AM PDT 0.78 21 0 Not Applicable
08/30/2026 11 AM PDT 0.78 21 0 Not Applicable
08/30/2026 12 PM PDT 0.78 21 0 Not Applicable
08/30/2026 01 PM PDT 0.78 21 0 Not Applicable
08/30/2026 02 PM PDT 0.77 21 - Not Applicable
08/30/2026 03 PM PDT 0.77 21 0 Not Applicable
08/30/2026 04 PM PDT 0.77 21 0 Not Applicable
08/30/2026 05 PM PDT 0.75 20 - Not Applicable
08/30/2026 06 PM PDT 0.73 19 - Not Applicable
08/30/2026 07 PM PDT 0.73 19 0 Not Applicable
08/30/2026 08 PM PDT 0.72 19 - Not Applicable
08/30/2026 09 PM PDT 0.72 19 0 Not Applicable
08/30/2026 10 PM PDT 0.71 18 - Not Applicable
08/30/2026 11 PM PDT 0.71 18 0 Not Applicable
08/31/2026 12 AM PDT 0.71 18 0 Not Applicable
08/31/2026 01 AM PDT 0.70 18 - Not Applicable
08/31/2026 02 AM PDT 0.70 18 0 Not Applicable
08/31/2026 03 AM PDT 0.70 18 0 Not Applicable
08/31/2026 04 AM PDT 0.69 17 - Not Applicable
08/31/2026 05 AM PDT 0.69 17 0 Not Applicable
08/31/2026 06 AM PDT 0.68 17 - Not Applicable
08/31/2026 07 AM PDT 0.68 17 0 Not Applicable
08/31/2026 08 AM PDT 0.67 17 - Not Applicable
08/31/2026 09 AM PDT 0.67 17 0 Not Applicable
08/31/2026 10 AM PDT 0.66 16 - Not Applicable
08/31/2026 11 AM PDT 0.66 16 0 Not Applicable
08/31/2026 12 PM PDT 0.66 16 0 Not Applicable
08/31/2026 01 PM PDT 0.65 16 - Not Applicable
08/31/2026 02 PM PDT 0.65 16 0 Not Applicable
08/31/2026 03 PM PDT 0.66 16 + Not Applicable
08/31/2026 04 PM PDT 0.66 16 0 Not Applicable
08/31/2026 05 PM PDT 0.66 16 0 Not Applicable
08/31/2026 06 PM PDT 0.66 16 0 Not Applicable
08/31/2026 07 PM PDT 0.66 16 0 Not Applicable
08/31/2026 08 PM PDT 0.67 17 + Not Applicable
08/31/2026 09 PM PDT 0.67 17 0 Not Applicable
08/31/2026 10 PM PDT 0.67 17 0 Not Applicable
08/31/2026 11 PM PDT 0.67 17 0 Not Applicable
09/01/2026 12 AM PDT 0.68 17 + Not Applicable
09/01/2026 01 AM PDT 0.68 17 0 Not Applicable
09/01/2026 02 AM PDT 0.68 17 0 Not Applicable
09/01/2026 03 AM PDT 0.68 17 0 Not Applicable
09/01/2026 04 AM PDT 0.68 17 0 Not Applicable
09/01/2026 05 AM PDT 0.69 17 + Not Applicable
09/01/2026 06 AM PDT 0.69 17 0 Not Applicable
09/01/2026 07 AM PDT 0.69 17 0 Not Applicable
09/01/2026 08 AM PDT 0.68 17 - Not Applicable
09/01/2026 09 AM PDT 0.68 17 0 Not Applicable
09/01/2026 10 AM PDT 0.68 17 0 Not Applicable
09/01/2026 11 AM PDT 0.68 17 0 Not Applicable
09/01/2026 12 PM PDT 0.68 17 0 Not Applicable
09/01/2026 01 PM PDT 0.69 17 + Not Applicable
09/01/2026 02 PM PDT 0.69 17 0 Not Applicable
09/01/2026 03 PM PDT 0.70 18 + Not Applicable
09/01/2026 04 PM PDT 0.70 18 0 Not Applicable
09/01/2026 05 PM PDT 0.71 18 + Not Applicable
09/01/2026 06 PM PDT 0.71 18 0 Not Applicable
09/01/2026 07 PM PDT 0.72 19 + Not Applicable
09/01/2026 08 PM PDT 0.72 19 0 Not Applicable
09/01/2026 09 PM PDT 0.72 19 0 Not Applicable
09/01/2026 10 PM PDT 0.72 19 0 Not Applicable
09/01/2026 11 PM PDT 0.72 19 0 Not Applicable
09/02/2026 12 AM PDT 0.72 19 0 Not Applicable
09/02/2026 01 AM PDT 0.72 19 0 Not Applicable
09/02/2026 02 AM PDT 0.72 19 0 Not Applicable
09/02/2026 03 AM PDT 0.72 19 0 Not Applicable
09/02/2026 04 AM PDT 0.72 19 0 Not Applicable
09/02/2026 05 AM PDT 0.72 19 0 Not Applicable
09/02/2026 06 AM PDT 0.72 19 0 Not Applicable
09/02/2026 07 AM PDT 0.72 19 0 Not Applicable
#
# FORECAST
#
# Date & Time (Local) Stage (Feet) Flow (cfs) Trend Forecast Status
# ---------------------------------------------------------------------------------
09/02/2026 08 AM PDT 0.72 19 Not Applicable
09/02/2026 09 AM PDT 0.72 19 0 Not Applicable
09/02/2026 10 AM PDT 0.72 19 0 Not Applicable
09/02/2026 11 AM PDT 0.72 19 0 Not Applicable
09/02/2026 12 PM PDT 0.72 19 0 Not Applicable
09/02/2026 01 PM PDT 0.72 19 0 Not Applicable
09/02/2026 02 PM PDT 0.72 19 0 Not Applicable
09/02/2026 03 PM PDT 0.72 19 0 Not Applicable
09/02/2026 04 PM PDT 0.72 19 0 Not Applicable
09/02/2026 05 PM PDT 0.72 19 0 Not Applicable
09/02/2026 06 PM PDT 0.72 19 0 Not Applicable
09/02/2026 07 PM PDT 0.72 19 0 Not Applicable
09/02/2026 08 PM PDT 0.72 19 0 Not Applicable
09/02/2026 09 PM PDT 0.72 19 0 Not Applicable
09/02/2026 10 PM PDT 0.72 19 0 Not Applicable
09/02/2026 11 PM PDT 0.72 19 0 Not Applicable
09/03/2026 12 AM PDT 0.72 19 0 Not Applicable
09/03/2026 01 AM PDT 0.71 18 - Not Applicable
09/03/2026 02 AM PDT 0.71 18 0 Not Applicable
09/03/2026 03 AM PDT 0.71 18 0 Not Applicable
09/03/2026 04 AM PDT 0.71 18 0 Not Applicable
09/03/2026 05 AM PDT 0.71 18 0 Not Applicable
09/03/2026 06 AM PDT 0.72 19 + Not Applicable
09/03/2026 07 AM PDT 0.73 19 + Not Applicable
09/03/2026 08 AM PDT 0.73 19 0 Not Applicable
09/03/2026 09 AM PDT 0.74 19 + Not Applicable
09/03/2026 10 AM PDT 0.75 20 + Not Applicable
09/03/2026 11 AM PDT 0.75 20 0 Not Applicable
09/03/2026 12 PM PDT 0.78 21 + Not Applicable
09/03/2026 01 PM PDT 0.80 22 + Not Applicable
09/03/2026 02 PM PDT 0.82 23 + Not Applicable
09/03/2026 03 PM PDT 0.84 24 + Not Applicable
09/03/2026 04 PM PDT 0.87 25 + Not Applicable
09/03/2026 05 PM PDT 0.89 26 + Not Applicable
09/03/2026 06 PM PDT 0.91 27 + Not Applicable
09/03/2026 07 PM PDT 0.93 28 + Not Applicable
09/03/2026 08 PM PDT 0.94 28 + Not Applicable
09/03/2026 09 PM PDT 0.96 29 + Not Applicable
09/03/2026 10 PM PDT 0.98 30 + Not Applicable
09/03/2026 11 PM PDT 1.00 31 + Not Applicable
09/04/2026 12 AM PDT 0.99 30 - Not Applicable
09/04/2026 01 AM PDT 0.99 30 0 Not Applicable
09/04/2026 02 AM PDT 0.99 30 0 Not Applicable
09/04/2026 03 AM PDT 0.98 30 - Not Applicable
09/04/2026 04 AM PDT 0.98 30 0 Not Applicable
09/04/2026 05 AM PDT 0.98 30 0 Not Applicable
09/04/2026 06 AM PDT 0.97 29 - Not Applicable
09/04/2026 07 AM PDT 0.95 28 - Not Applicable
09/04/2026 08 AM PDT 0.94 28 - Not Applicable
09/04/2026 09 AM PDT 0.93 28 - Not Applicable
09/04/2026 10 AM PDT 0.92 27 - Not Applicable
09/04/2026 11 AM PDT 0.91 27 - Not Applicable
09/04/2026 12 PM PDT 0.90 26 - Not Applicable
09/04/2026 01 PM PDT 0.89 26 - Not Applicable
09/04/2026 02 PM PDT 0.88 25 - Not Applicable
09/04/2026 03 PM PDT 0.87 25 - Not Applicable
09/04/2026 04 PM PDT 0.85 24 - Not Applicable
09/04/2026 05 PM PDT 0.84 24 - Not Applicable
09/04/2026 06 PM PDT 0.83 23 - Not Applicable
09/04/2026 07 PM PDT 0.82 23 - Not Applicable
09/04/2026 08 PM PDT 0.81 22 - Not Applicable
09/04/2026 09 PM PDT 0.81 22 0 Not Applicable
09/04/2026 10 PM PDT 0.80 22 - Not Applicable
09/04/2026 11 PM PDT 0.79 21 - Not Applicable
09/05/2026 12 AM PDT 0.78 21 - Not Applicable
09/05/2026 01 AM PDT 0.77 21 - Not Applicable
09/05/2026 02 AM PDT 0.77 21 0 Not Applicable
09/05/2026 03 AM PDT 0.76 20 - Not Applicable
09/05/2026 04 AM PDT 0.75 20 - Not Applicable
09/05/2026 05 AM PDT 0.74 19 - Not Applicable
09/05/2026 06 AM PDT 0.74 19 0 Not Applicable
09/05/2026 07 AM PDT 0.74 19 0 Not Applicable
09/05/2026 08 AM PDT 0.73 19 - Not Applicable
09/05/2026 09 AM PDT 0.73 19 0 Not Applicable
09/05/2026 10 AM PDT 0.72 19 - Not Applicable
09/05/2026 11 AM PDT 0.72 19 0 Not Applicable
09/05/2026 12 PM PDT 0.72 19 0 Not Applicable
09/05/2026 01 PM PDT 0.72 19 0 Not Applicable
09/05/2026 02 PM PDT 0.72 19 0 Not Applicable
09/05/2026 03 PM PDT 0.72 19 0 Not Applicable
09/05/2026 04 PM PDT 0.71 18 - Not Applicable
09/05/2026 05 PM PDT 0.71 18 0 Not Applicable
09/05/2026 06 PM PDT 0.71 18 0 Not Applicable
09/05/2026 07 PM PDT 0.71 18 0 Not Applicable
09/05/2026 08 PM PDT 0.71 18 0 Not Applicable
09/05/2026 09 PM PDT 0.71 18 0 Not Applicable
09/05/2026 10 PM PDT 0.71 18 0 Not Applicable
09/05/2026 11 PM PDT 0.71 18 0 Not Applicable
09/06/2026 12 AM PDT 0.71 18 0 Not Applicable
09/06/2026 01 AM PDT 0.71 18 0 Not Applicable
09/06/2026 02 AM PDT 0.71 18 0 Not Applicable
09/06/2026 03 AM PDT 0.71 18 0 Not Applicable
09/06/2026 04 AM PDT 0.71 18 0 Not Applicable
09/06/2026 05 AM PDT 0.71 18 0 Not Applicable
09/06/2026 06 AM PDT 0.71 18 0 Not Applicable
09/06/2026 07 AM PDT 0.71 18 0 Not Applicable
09/06/2026 08 AM PDT 0.71 18 0 Not Applicable
09/06/2026 09 AM PDT 0.71 18 0 Not Applicable
09/06/2026 10 AM PDT 0.71 18 0 Not Applicable
09/06/2026 11 AM PDT 0.71 18 0 Not Applicable
09/06/2026 12 PM PDT 0.71 18 0 Not Applicable
09/06/2026 01 PM PDT 0.71 18 0 Not Applicable
09/06/2026 02 PM PDT 0.71 18 0 Not Applicable
09/06/2026 03 PM PDT 0.71 18 0 Not Applicable
09/06/2026 04 PM PDT 0.71 18 0 Not Applicable
09/06/2026 05 PM PDT 0.71 18 0 Not Applicable
09/06/2026 06 PM PDT 0.71 18 0 Not Applicable
09/06/2026 07 PM PDT 0.71 18 0 Not Applicable
09/06/2026 08 PM PDT 0.71 18 0 Not Applicable
09/06/2026 09 PM PDT 0.71 18 0 Not Applicable
09/06/2026 10 PM PDT 0.71 18 0 Not Applicable
09/06/2026 11 PM PDT 0.71 18 0 Not Applicable
09/07/2026 12 AM PDT 0.71 18 0 Not Applicable
09/07/2026 01 AM PDT 0.71 18 0 Not Applicable
09/07/2026 02 AM PDT 0.71 18 0 Not Applicable
09/07/2026 03 AM PDT 0.71 18 0 Not Applicable
09/07/2026 04 AM PDT 0.71 18 0 Not Applicable
09/07/2026 05 AM PDT 0.71 18 0 Not Applicable
#
# NOTE 1: Stages are rounded to the nearest hundredth (.01) of a foot.
# NOTE 2: Flows are rounded to the nearest (1) cfs.
# NOTE 3: Trends are determined using hourly change in unrounded stage and flow.
# NOTE 4: Maximum Values are determined using unrounded stage and flow.
|